User: anonymous   Login
Location: Unspecified
(0.0000°N, 0.0000°E)
Time: 04:22:19
(UTC+00:00)
Language:

OPTUS D1 - Orbit

View from above orbital plane
View from above orbital plane
View from above satellite
View from above satellite

Ground track
Ground track

The orbit data is extracted from the following two-line orbital elements,

1 29495U 06043B   17119.79805083 -.00000129 +00000-0 +00000-0 0  9994
2 29495 000.0537 084.4897 0003302 309.0553 271.6847 01.00271095038695
Epoch (UTC): 29 April 2017 19:09:11
Eccentricity: 0.0003302
inclination: 0.0537°
perigee height: 35772 km
apogee height: 35800 km
right ascension of ascending node: 84.4897°
argument of perigee: 309.0553°
revolutions per day: 1.00271095
mean anomaly at epoch: 271.6847°
orbit number at epoch: 3869

The dashed part of the orbit path shows where the satellite is in the earth's shadow,  

DLR